Printer-friendly version

IAU Minor Planet Center

Minor Planet Center

MPEC 2006-U74 : 2006 UL185

The following Minor Planet Electronic Circular may be linked-to from your own Web pages, but must not otherwise be redistributed electronically.


Read MPEC 2006-U73 Read MPEC 2006-U75


M.P.E.C. 2006-U74                                Issued 2006 Oct. 29, 16:11 UT

     The Minor Planet Electronic Circulars contain information on unusual
         minor planets and routine data on comets.  They are published
   on behalf of Commission 20 of the International Astronomical Union by the
          Minor Planet Center, Smithsonian Astrophysical Observatory,
                          Cambridge, MA 02138, U.S.A.

             Prepared using the Tamkin Foundation Computer Network

                              MPC@CFA.HARVARD.EDU
          URL http://cfa-www.harvard.edu/iau/mpc.html  ISSN 1523-6714

                                  2006 UL185

Observations:
     K06UI5L* C2006 10 28.31527 03 38 26.73 -04 57 45.6          19.5 V EU074703
     K06UI5L  C2006 10 28.32255 03 38 23.85 -04 57 39.1          19.7 V EU074703
     K06UI5L  C2006 10 28.32985 03 38 21.04 -04 57 31.5          19.5 V EU074703
     K06UI5L  C2006 10 28.33712 03 38 17.98 -04 57 24.3          19.6 V EU074703
     K06UI5L  C2006 10 28.36687 03 38 06.03 -04 56 52.6          19.5 V EU074703
     K06UI5L  C2006 10 28.36776 03 38 05.53 -04 56 52.2          19.7 V EU074703
     K06UI5L  C2006 10 28.36862 03 38 05.20 -04 56 51.5          19.7 V EU074703
     K06UI5L  C2006 10 28.36950 03 38 04.84 -04 56 50.6          19.4 V EU074703
     K06UI5L  C2006 10 29.22980 03 32 26.16 -04 42 06.1          20.2 V EU074G96
     K06UI5L  C2006 10 29.23543 03 32 23.89 -04 41 59.8          20.2 V EU074G96
     K06UI5L  C2006 10 29.23980 03 32 22.12 -04 41 55.7          20.5 V EU074G96
     K06UI5L  C2006 10 29.24417 03 32 20.36 -04 41 51.1          20.2 V EU074G96
     K06UI5L  C2006 10 29.28558 03 32 03.48 -04 41 07.7          20.2 V EU074G96
     K06UI5L  C2006 10 29.28600 03 32 03.30 -04 41 07.1          20.4 V EU074G96
     K06UI5L  C2006 10 29.28626 03 32 03.30 -04 41 07.2          20.1 V EU074703
     K06UI5L  C2006 10 29.28642 03 32 03.15 -04 41 07.0          19.9 V EU074G96
     K06UI5L  C2006 10 29.28684 03 32 02.97 -04 41 06.4          19.9 V EU074G96
     K06UI5L  C2006 10 29.28806 03 32 02.40 -04 41 04.3          20.1 V EU074703
     K06UI5L  C2006 10 29.29248 03 32 00.60 -04 40 59.2          19.6 V EU074703
     K06UI5L  C2006 10 29.29438 03 31 59.84 -04 40 59.2          19.9 V EU074703
     K06UI5L 5C2006 10 29.33009 03 31 45.50 -04 40 21.3          19.6 R EU074673
     K06UI5L 5C2006 10 29.33565 03 31 43.21 -04 40 15.2                 EU074673
     K06UI5L 5C2006 10 29.34329 03 31 40.09 -04 40 06.9                 EU074673
     K06UI5L 5C2006 10 29.35081 03 31 37.01 -04 39 58.9                 EU074673

Observer details:
673 Table Mountain Observatory, Wrightwood.  Observer J. Young.  0.61-m f/16
    Cassegrain + CCD.
703 Catalina Sky Survey.  Observer E. J. Christensen.  Measurers E. C. Beshore,
    E. J. Christensen, G. J. Garradd, A. R. Gibbs, A. D. Grauer, R. E. Hill,
    R. A. Kowalski, S. M. Larson, R. H. McNaught.  0.68-m Schmidt + CCD.
G96 Mt. Lemmon Survey.  Observer A. R. Gibbs.  Measurers E. C. Beshore,
    E. J. Christensen, G. J. Garradd, A. R. Gibbs, A. D. Grauer, R. E. Hill,
    R. A. Kowalski, S. M. Larson, R. H. McNaught.  1.5-m reflector + CCD.

Orbital elements:
2006 UL185                                               Earth MOID = 0.2063 AU
Epoch 2006 Sept. 22.0 TT = JDT 2454000.5                MPC
M 102.37465              (2000.0)            P               Q
n   1.27532991     Peri.  177.03525     -0.65254897     +0.70759649
a   0.8421466      Node    52.04245     -0.70210090     -0.43004899
e   0.5081580      Incl.   20.10934     -0.28501609     -0.56068268
P   0.77           H   21.2           G   0.15           U   9
Residuals in seconds of arc
061028 703  1.1-  0.2-    061029 G96  0.3-  0.3-    061029 G96  0.2+  0.3-
061028 703  0.2-  1.0-    061029 G96  0.0   0.1+    061029 703  0.9-  0.5+
061028 703  1.9+  0.7-    061029 G96  0.0   0.3-    061029 703  0.8-  1.0+
061028 703  0.1+  0.7-    061029 G96  0.3+  0.3-    061029 703  0.6-  1.0-
061028 703  1.3+  1.1+    061029 G96  0.1+  0.3-    061029 673  0.2+  0.1+
061028 703  0.8-  0.7+    061029 G96  0.0   0.1-    061029 673  0.0   0.3+
061028 703  0.5-  0.5+    061029 703  1.6+  0.5-    061029 673  0.0   0.6+
061028 703  0.6-  0.5+    061029 G96  0.3+  0.4-    061029 673  0.0   0.6+

Ephemeris:
2006 UL185               a,e,i = 0.84, 0.51, 20                  q = 0.4142
Date    TT    R. A. (2000) Decl.     Delta      r     Elong.  Phase     V
2006 10 22    04 17.27   -06 23.6    0.288    1.225   138.4    32.6    20.3
2006 11 01    03 13.86   -03 49.9    0.273    1.250   158.0    17.3    19.8
2006 11 11    02 09.14   -00 05.3    0.291    1.265   158.1    17.0    19.9
2006 11 21    01 19.71   +03 42.4    0.339    1.270   141.2    29.2    20.6
2006 12 01    00 49.35   +06 59.1    0.407    1.266   125.5    39.3    21.3
2006 12 11    00 33.60   +09 48.2    0.482    1.253   112.8    46.4    21.9

Gareth V. Williams           (C) Copyright 2006 MPC           M.P.E.C. 2006-U74

Read MPEC 2006-U73 Read MPEC 2006-U75


Our Web policy. Index to the CBAT/MPC/ICQ pages.


Valid HTML 4.01!